Home   Weather   Anchorage   Past weeks
Flag for USA

Past Weather in Anchorage, Alaska, USA — Yesterday and Last 2 Weeks

Now
26 °F

Light snow. Ice fog.


Feels Like: 19 °F
Forecast: 36 / 28 °F
Wind: 6 mph from North

Location: Lake Hood Seaplane

Current Time: Apr 2, 2020 at 8:48:44 am

Latest Report: Apr 2, 2020 at 7:53 am


Visibility: 1 mi

Pressure: 30.31 "Hg

Humidity: 88%

Dew Point: 23 °F

Location of AnchorageLocation

Past Weather in Anchorage — Graph

°F

Anchorage Temperature Yesterday

Maximum temperature yesterday: 35 °F (at 5:53 pm)
Minimum temperature yesterday: 21 °F (at 6:53 am)
Average temperature yesterday: 28 °F

High & Low Weather Summary for the Past Weeks

 TemperatureHumidityPressure
High43 °F (Mar 25, 3:53 pm)96% (Mar 18, 10:53 am)30.54 "Hg (Mar 18, 10:53 am)
Low11 °F (Mar 29, 7:53 am)27% (Mar 30, 12:53 am)29.50 "Hg (Mar 28, 5:53 pm)
Average29 °F67%30.11 "Hg
* Reported Mar 18 7:05 am — Apr 2 7:37 am, Anchorage. Weather by CustomWeather, © 2020

Note: Actual official high and low records may vary slightly from our data, if they occured in-between our weather recording intervals... More about our weather records

Anchorage Weather History for the Previous 24 Hours

Scroll right to see more
 ConditionsComfort  
Time TempWeatherWind HumidityBarometerVisibility
7:37 am
Thu, Apr 2
26 °FLight snow. Ice fog.5 mph88%30.31 "Hg1 mi
7:08 am26 °FLight snow. Ice fog.5 mph88%30.31 "Hg3 mi
6:53 am26 °FLight snow. Ice fog.6 mph88%30.31 "Hg2 mi
5:53 am26 °FLight snow. Ice fog.5 mph88%30.31 "Hg5 mi
5:26 am26 °FLight snow. Ice fog.3 mph88%30.31 "Hg4 mi
5:11 am27 °FLight snow. Ice fog.3 mph85%30.32 "Hg2 mi
5:04 am27 °FLight snow. Ice fog.3 mph85%30.32 "Hg2 mi
4:27 am27 °FLight snow. Ice fog.3 mph85%30.32 "Hg2 mi
4:09 am27 °FLight snow. Ice fog.5 mph85%30.32 "Hg2 mi
3:53 am27 °FLight snow. Overcast.5 mph81%30.33 "Hg5 mi
2:53 am27 °FLight snow. Overcast.6 mph81%30.34 "Hg4 mi
1:53 am28 °FMostly cloudy.5 mph75%30.34 "Hg10 mi
12:53 am29 °FMostly cloudy.5 mph69%30.34 "Hg10 mi
11:53 pm
Wed, Apr 1
29 °FMostly cloudy.6 mph69%30.34 "Hg10 mi
10:53 pm30 °FOvercast.6 mph66%30.34 "Hg10 mi
9:53 pm31 °FOvercast.5 mph64%30.34 "Hg10 mi
8:53 pm32 °FOvercast.No wind56%30.34 "Hg10 mi
7:53 pm32 °FMostly cloudy.5 mph54%30.33 "Hg10 mi
6:53 pm34 °FMostly cloudy.3 mph48%30.33 "Hg10 mi
5:53 pm35 °FOvercast.8 mph38%30.34 "Hg10 mi
4:53 pm34 °FMostly cloudy.7 mph40%30.35 "Hg10 mi
3:53 pm33 °FOvercast.8 mph38%30.36 "Hg10 mi
2:53 pm31 °FOvercast.8 mph43%30.37 "Hg10 mi
1:53 pm29 °FMostly cloudy.12 mph47%30.38 "Hg10 mi
12:53 pm28 °FPartly sunny.7 mph45%30.39 "Hg10 mi
11:53 am26 °FOvercast.10 mph46%30.40 "Hg10 mi
10:53 am24 °FOvercast.9 mph50%30.40 "Hg10 mi
9:53 am23 °FOvercast.8 mph50%30.40 "Hg10 mi
8:53 am22 °FOvercast.8 mph52%30.40 "Hg10 mi
Weather by CustomWeather, © 2020

See weather overview

Advertising